Time,TemperatureF,DewpointF,PressureIn,WindDirection,WindDirectionDegrees,WindSpeedMPH,WindSpeedGustMPH,Humidity,HourlyPrecipIn,Conditions,Clouds,dailyrainin,SoftwareType,DateUTC
2013-03-28 00:00:00,49.1,46.6,30.16,NE,45,0.0,0.0,91,0.00,,,0.00,WUHU216HW,2013-03-28 07:00:00,
2013-03-28 00:05:00,49.1,46.6,30.16,NE,45,0.0,0.0,91,0.00,,,0.00,WUHU216HW,2013-03-28 07:05:00,
2013-03-28 00:10:00,49.1,46.6,30.16,NE,45,0.0,0.0,91,0.00,,,0.00,WUHU216HW,2013-03-28 07:10:00,
2013-03-28 00:30:00,49.0,46.4,30.16,NNW,338,0.0,0.0,91,0.00,,,0.00,WUHU216HW,2013-03-28 07:30:00,
2013-03-28 00:35:00,49.0,46.4,30.16,NNW,338,0.0,0.0,91,0.00,,,0.00,WUHU216HW,2013-03-28 07:35:00,
2013-03-28 00:40:00,49.0,46.4,30.16,NNW,338,0.0,0.0,91,0.00,,,0.00,WUHU216HW,2013-03-28 07:40:00,
2013-03-28 01:00:00,48.6,46.2,30.16,North,0,0.0,0.0,91,0.00,,,0.00,WUHU216HW,2013-03-28 08:00:00,
2013-03-28 01:05:00,48.6,46.2,30.16,North,0,0.0,0.0,91,0.00,,,0.00,WUHU216HW,2013-03-28 08:05:00,
2013-03-28 01:10:00,48.6,46.2,30.16,North,0,0.0,0.0,91,0.00,,,0.00,WUHU216HW,2013-03-28 08:10:00,
2013-03-28 01:30:00,48.2,45.8,30.16,NW,315,0.0,0.0,91,0.00,,,0.00,WUHU216HW,2013-03-28 08:30:00,
2013-03-28 01:35:00,48.2,46.1,30.16,NW,315,0.0,0.0,92,0.00,,,0.00,WUHU216HW,2013-03-28 08:35:00,
2013-03-28 01:40:00,48.2,46.1,30.16,NW,315,0.0,0.0,92,0.00,,,0.00,WUHU216HW,2013-03-28 08:40:00,
2013-03-28 02:00:00,48.2,46.1,30.17,NW,315,0.0,0.0,92,0.00,,,0.00,WUHU216HW,2013-03-28 09:00:00,
2013-03-28 02:05:00,48.2,46.1,30.17,NW,315,0.0,0.0,92,0.00,,,0.00,WUHU216HW,2013-03-28 09:05:00,
2013-03-28 02:10:00,48.2,46.1,30.17,NW,315,0.0,0.0,92,0.00,,,0.00,WUHU216HW,2013-03-28 09:10:00,
2013-03-28 02:30:00,48.2,46.1,30.17,WNW,293,0.0,0.0,92,0.01,,,0.00,WUHU216HW,2013-03-28 09:30:00,
2013-03-28 02:35:00,48.2,46.1,30.17,WNW,293,0.0,0.0,92,0.01,,,0.01,WUHU216HW,2013-03-28 09:35:00,
2013-03-28 02:40:00,48.2,46.1,30.17,WNW,293,0.0,0.0,92,0.01,,,0.01,WUHU216HW,2013-03-28 09:40:00,
2013-03-28 03:00:00,48.1,45.9,30.17,WNW,293,0.0,0.0,92,0.01,,,0.01,WUHU216HW,2013-03-28 10:00:00,
2013-03-28 03:05:00,48.1,45.9,30.17,WNW,293,0.0,0.0,92,0.01,,,0.01,WUHU216HW,2013-03-28 10:05:00,
2013-03-28 03:10:00,48.1,45.9,30.17,WNW,293,0.0,0.0,92,0.01,,,0.01,WUHU216HW,2013-03-28 10:10:00,
2013-03-28 03:30:00,47.9,45.7,30.17,WNW,293,0.0,0.0,92,0.00,,,0.01,WUHU216HW,2013-03-28 10:30:00,
2013-03-28 03:35:00,47.9,45.7,30.17,WNW,293,0.0,0.0,92,0.00,,,0.01,WUHU216HW,2013-03-28 10:35:00,
2013-03-28 03:40:00,47.9,45.7,30.17,WNW,293,0.0,0.0,92,0.00,,,0.01,WUHU216HW,2013-03-28 10:40:00,
2013-03-28 04:00:00,47.9,46.0,30.17,South,180,0.0,0.0,93,0.00,,,0.01,WUHU216HW,2013-03-28 11:00:00,
2013-03-28 04:05:00,47.9,45.7,30.17,South,180,0.0,0.0,92,0.00,,,0.01,WUHU216HW,2013-03-28 11:05:00,
2013-03-28 04:10:00,47.9,45.7,30.17,South,180,0.0,0.0,92,0.00,,,0.01,WUHU216HW,2013-03-28 11:10:00,
2013-03-28 04:30:00,47.7,45.5,30.17,WSW,248,0.0,0.0,92,0.00,,,0.01,WUHU216HW,2013-03-28 11:30:00,
2013-03-28 04:35:00,47.7,45.5,30.17,WSW,248,0.0,0.0,92,0.00,,,0.01,WUHU216HW,2013-03-28 11:35:00,
2013-03-28 05:00:00,47.9,46.0,30.17,WSW,248,0.0,0.0,93,0.00,,,0.01,WUHU216HW,2013-03-28 12:00:00,
2013-03-28 05:05:00,47.9,46.0,30.17,WSW,248,0.0,0.0,93,0.00,,,0.01,WUHU216HW,2013-03-28 12:05:00,
2013-03-28 05:30:00,47.9,46.0,30.18,WSW,248,0.0,0.0,93,0.00,,,0.01,WUHU216HW,2013-03-28 12:30:00,
2013-03-28 05:35:00,47.9,46.0,30.18,WSW,248,0.0,0.0,93,0.00,,,0.01,WUHU216HW,2013-03-28 12:35:00,
2013-03-28 05:40:00,47.9,46.0,30.18,WSW,248,0.0,0.0,93,0.00,,,0.01,WUHU216HW,2013-03-28 12:40:00,
2013-03-28 06:00:00,47.9,46.0,30.18,WSW,248,0.0,0.0,93,0.00,,,0.01,WUHU216HW,2013-03-28 13:00:00,
2013-03-28 06:05:00,47.9,46.0,30.18,WSW,248,0.0,0.0,93,0.00,,,0.01,WUHU216HW,2013-03-28 13:05:00,
2013-03-28 06:30:00,47.9,46.0,30.18,WSW,248,0.0,0.0,93,0.00,,,0.01,WUHU216HW,2013-03-28 13:30:00,
2013-03-28 06:35:00,47.9,46.0,30.18,WSW,248,0.0,0.0,93,0.00,,,0.01,WUHU216HW,2013-03-28 13:35:00,
2013-03-28 07:00:00,47.9,46.0,30.19,East,90,0.0,0.0,93,0.00,,,0.01,WUHU216HW,2013-03-28 14:00:00,
2013-03-28 07:05:00,47.9,46.0,30.19,East,90,0.0,0.0,93,0.00,,,0.01,WUHU216HW,2013-03-28 14:05:00,
2013-03-28 07:10:00,47.9,46.0,30.19,East,90,0.0,0.0,93,0.00,,,0.01,WUHU216HW,2013-03-28 14:10:00,
2013-03-28 07:30:00,48.1,46.2,30.20,NNE,23,0.0,0.0,93,0.00,,,0.01,WUHU216HW,2013-03-28 14:30:00,
2013-03-28 07:35:00,48.1,46.2,30.20,NNE,23,0.0,0.0,93,0.00,,,0.01,WUHU216HW,2013-03-28 14:35:00,
2013-03-28 08:00:00,48.2,46.4,30.21,East,90,0.0,0.0,93,0.00,,,0.01,WUHU216HW,2013-03-28 15:00:00,
2013-03-28 08:05:00,48.2,46.4,30.21,East,90,0.0,0.0,93,0.00,,,0.01,WUHU216HW,2013-03-28 15:05:00,
2013-03-28 08:30:00,49.0,47.0,30.21,East,90,0.0,0.0,93,0.00,,,0.01,WUHU216HW,2013-03-28 15:30:00,
2013-03-28 08:35:00,49.0,47.0,30.21,East,90,0.0,0.0,93,0.00,,,0.01,WUHU216HW,2013-03-28 15:35:00,
2013-03-28 08:40:00,49.0,47.0,30.21,East,90,0.0,0.0,93,0.00,,,0.01,WUHU216HW,2013-03-28 15:40:00,
2013-03-28 09:00:00,50.0,48.1,30.22,NNW,338,0.0,0.0,93,0.00,,,0.01,WUHU216HW,2013-03-28 16:00:00,
2013-03-28 09:05:00,50.0,48.1,30.22,NNW,338,0.0,0.0,93,0.00,,,0.01,WUHU216HW,2013-03-28 16:05:00,
2013-03-28 09:30:00,50.6,48.2,30.22,ESE,113,0.0,0.0,92,0.00,,,0.01,WUHU216HW,2013-03-28 16:30:00,
2013-03-28 09:35:00,50.6,48.2,30.22,ESE,113,0.0,0.0,92,0.00,,,0.01,WUHU216HW,2013-03-28 16:35:00,
2013-03-28 10:00:00,51.8,49.5,30.22,NNE,23,0.0,0.0,92,0.00,,,0.01,WUHU216HW,2013-03-28 17:00:00,
2013-03-28 10:05:00,52.0,49.7,30.22,NNE,23,0.0,0.0,92,0.00,,,0.01,WUHU216HW,2013-03-28 17:05:00,
2013-03-28 10:10:00,52.0,49.7,30.22,NNE,23,0.0,0.0,92,0.00,,,0.01,WUHU216HW,2013-03-28 17:10:00,
2013-03-28 10:30:00,53.5,50.6,30.23,NW,315,0.2,0.2,90,0.00,,,0.01,WUHU216HW,2013-03-28 17:30:00,
2013-03-28 10:35:00,53.5,50.6,30.23,NW,315,0.2,0.2,90,0.00,,,0.01,WUHU216HW,2013-03-28 17:35:00,
2013-03-28 17:30:00,61.9,53.9,30.22,NNW,338,0.0,0.0,75,0.00,,,0.01,WUHU216HW,2013-03-29 00:30:00,
2013-03-28 17:35:00,62.5,53.6,30.22,SE,135,1.3,1.3,73,0.00,,,0.02,WUHU216HW,2013-03-29 00:35:00,
2013-03-28 17:37:00,62.5,53.6,30.22,SW,225,0.9,0.9,73,0.00,,,0.02,WUHU216HW,2013-03-29 00:37:00,
2013-03-28 17:40:00,62.5,53.6,30.22,SW,225,0.9,1.3,73,0.00,,,0.02,WUHU216HW,2013-03-29 00:40:00,
2013-03-28 17:45:00,62.5,53.6,30.22,SW,225,0.9,1.1,73,0.00,,,0.02,WUHU216HW,2013-03-29 00:45:00,
2013-03-28 18:00:00,63.4,51.8,30.22,WNW,293,1.1,1.1,66,0.00,,,0.02,WUHU216HW,2013-03-29 01:00:00,
2013-03-28 18:05:00,63.4,51.8,30.22,WNW,293,1.1,1.1,66,0.00,,,0.02,WUHU216HW,2013-03-29 01:05:00,
2013-03-28 18:10:00,63.4,51.8,30.22,WNW,293,1.1,1.1,66,0.00,,,0.02,WUHU216HW,2013-03-29 01:10:00,
2013-03-28 18:30:00,60.1,48.8,30.22,ENE,68,0.2,0.2,66,0.00,,,0.02,WUHU216HW,2013-03-29 01:30:00,
2013-03-28 18:35:00,60.1,48.8,30.22,ENE,68,0.0,0.2,66,0.00,,,0.02,WUHU216HW,2013-03-29 01:35:00,
2013-03-28 18:40:00,60.1,48.8,30.22,ENE,68,0.0,0.0,66,0.00,,,0.02,WUHU216HW,2013-03-29 01:40:00,
2013-03-28 19:00:00,58.0,49.3,30.22,SSW,203,0.2,0.2,73,0.00,,,0.02,WUHU216HW,2013-03-29 02:00:00,
2013-03-28 19:04:00,58.0,49.3,30.22,SSW,203,0.2,0.2,73,0.01,,,0.02,WUHU216HW,2013-03-29 02:04:00,
2013-03-28 19:09:00,58.0,49.3,30.22,SSW,203,0.2,0.2,73,0.01,,,0.02,WUHU216HW,2013-03-29 02:09:00,
2013-03-28 19:30:00,56.3,49.5,30.23,SW,225,0.2,0.2,78,0.01,,,0.03,WUHU216HW,2013-03-29 02:30:00,
2013-03-28 19:35:00,56.3,49.5,30.23,SW,225,0.2,0.2,78,0.01,,,0.03,WUHU216HW,2013-03-29 02:35:00,
2013-03-28 20:00:00,54.4,48.3,30.24,SSW,203,0.0,0.0,80,0.01,,,0.03,WUHU216HW,2013-03-29 03:00:00,
2013-03-28 20:05:00,54.4,49.3,30.24,South,180,0.2,0.2,83,0.00,,,0.03,WUHU216HW,2013-03-29 03:05:00,
2013-03-28 20:10:00,54.4,49.3,30.24,South,180,0.2,0.2,83,0.00,,,0.03,WUHU216HW,2013-03-29 03:10:00,
2013-03-28 20:30:00,53.6,48.6,30.25,SSE,158,0.0,0.0,83,0.00,,,0.03,WUHU216HW,2013-03-29 03:30:00,
2013-03-28 20:35:00,53.6,48.6,30.25,SSE,158,0.0,0.0,83,0.00,,,0.03,WUHU216HW,2013-03-29 03:35:00,
2013-03-28 21:00:00,52.9,48.3,30.26,SW,225,0.2,0.2,84,0.00,,,0.03,WUHU216HW,2013-03-29 04:00:00,
2013-03-28 21:05:00,52.9,48.3,30.26,SW,225,0.2,0.2,84,0.00,,,0.03,WUHU216HW,2013-03-29 04:05:00,
2013-03-28 21:30:00,52.2,48.4,30.27,ESE,113,0.0,0.0,87,0.00,,,0.03,WUHU216HW,2013-03-29 04:30:00,
2013-03-28 21:35:00,52.2,48.4,30.27,ESE,113,0.0,0.0,87,0.00,,,0.03,WUHU216HW,2013-03-29 04:35:00,
2013-03-28 22:00:00,51.5,47.7,30.28,SE,135,0.0,0.0,87,0.00,,,0.03,WUHU216HW,2013-03-29 05:00:00,
2013-03-28 22:01:00,51.5,47.7,30.28,SW,225,0.0,0.0,87,0.00,,,0.03,WUHU216HW,2013-03-29 05:01:00,
2013-03-28 22:05:00,51.5,47.7,30.28,SW,225,0.0,0.0,87,0.00,,,0.03,WUHU216HW,2013-03-29 05:05:00,
2013-03-28 22:10:00,51.5,47.7,30.28,SW,225,0.0,0.0,87,0.00,,,0.03,WUHU216HW,2013-03-29 05:10:00,
2013-03-28 22:31:00,51.3,47.5,30.28,NNW,338,0.0,0.0,87,0.00,,,0.03,WUHU216HW,2013-03-29 05:31:00,
2013-03-28 22:36:00,51.3,47.5,30.28,NNW,338,0.0,0.0,87,0.00,,,0.03,WUHU216HW,2013-03-29 05:36:00,
2013-03-28 23:00:00,51.1,47.6,30.29,SE,135,0.0,0.0,88,0.00,,,0.03,WUHU216HW,2013-03-29 06:00:00,
2013-03-28 23:05:00,51.1,47.6,30.29,SE,135,0.0,0.0,88,0.00,,,0.03,WUHU216HW,2013-03-29 06:05:00,
2013-03-28 23:10:00,51.1,47.6,30.29,SE,135,0.0,0.0,88,0.00,,,0.03,WUHU216HW,2013-03-29 06:10:00,
2013-03-28 23:30:00,50.8,47.3,30.30,WNW,293,0.0,0.0,88,0.00,,,0.03,WUHU216HW,2013-03-29 06:30:00,
2013-03-28 23:35:00,50.8,47.3,30.30,WNW,293,0.0,0.0,88,0.00,,,0.03,WUHU216HW,2013-03-29 06:35:00,
2013-03-28 23:40:00,50.8,47.3,30.30,WNW,293,0.0,0.0,88,0.00,,,0.03,WUHU216HW,2013-03-29 06:40:00,